CW6318 Weather Reports


Display with metric or nautical units.
time (UTC)temp
F
wind
direction
speed
MPH
gust
MPH
rain 1hr
in
rain 24hr
in
rain mn
in
humidity
%
barometer
mb
20260905000004 57 232 0.0 0.0 0.00 0.02 0.00 76 998.8
20260904235004 57 232 0.0 0.0 0.00 0.02 0.00 75 998.6
20260904234500 57 232 0.0 0.0 0.00 0.02 0.00 76 998.5
20260904234006 57 232 0.0 0.0 0.00 0.02 0.00 75 998.5
20260904232003 57 232 0.0 0.0 0.00 0.02 0.00 74 998.6
20260904231505 56 232 0.0 0.0 0.00 0.02 0.00 74 998.5
20260904231003 56 232 0.0 0.0 0.00 0.02 0.00 72 998.6
20260904230002 56 232 0.0 0.0 0.00 0.02 0.00 70 998.5
20260904225502 56 232 0.0 0.0 0.00 0.02 0.00 69 998.5
20260904225006 56 232 0.0 0.0 0.00 0.02 0.00 70 998.5
20260904224003 56 232 0.0 0.0 0.00 0.02 0.00 72 998.5
20260904223508 57 232 0.0 0.0 0.00 0.02 0.00 73 998.5
20260904223007 57 232 0.0 0.0 0.00 0.02 0.00 73 998.4
20260904222005 57 232 0.0 0.0 0.00 0.02 0.00 74 998.4
20260904221007 57 232 0.0 0.0 0.00 0.02 0.00 74 998.4
20260904215004 58 227 0.0 0.0 0.00 0.03 0.00 69 998.4
20260904213504 58 227 0.0 0.0 0.00 0.03 0.00 69 998.0
20260904213004 58 227 0.0 0.0 0.00 0.03 0.00 69 997.9
20260904212507 58 227 0.0 0.0 0.00 0.03 0.00 69 997.9
20260904211008 58 227 0.0 0.0 0.00 0.03 0.00 69 997.5
20260904210009 58 227 0.0 0.0 0.00 0.05 0.00 71 997.4
20260904205504 58 227 0.0 0.0 0.00 0.05 0.00 74 997.4
20260904204004 61 227 0.0 0.0 0.00 0.05 0.00 75 997.3
20260904200507 61 233 0.0 0.0 0.00 0.05 0.00 75 997.1
20260904195006 61 233 0.0 0.0 0.00 0.06 0.00 75 997.0
20260904194007 62 233 0.0 0.0 0.00 0.06 0.00 75 997.0
20260904190504 58 233 0.0 0.0 0.00 0.06 0.00 65 997.3
20260904190002 57 233 0.0 0.0 0.00 0.09 0.00 66 997.4
20260904185505 57 233 0.0 0.0 0.00 0.09 0.00 65 997.4
20260904184501 57 233 0.0 0.0 0.00 0.09 0.00 65 997.4
20260904183504 56 233 0.0 0.0 0.00 0.09 0.00 62 997.5
20260904181503 55 233 0.0 0.0 0.00 0.09 0.00 58 997.4
20260904180502 56 233 0.0 0.0 0.00 0.09 0.00 60 997.2
20260904180003 56 233 0.0 0.0 0.00 0.11 0.00 60 997.3
20260904175503 55 233 0.0 0.0 0.00 0.11 0.00 61 997.4
20260904174502 54 233 0.0 0.0 0.00 0.11 0.00 59 997.2
20260904174002 54 233 0.0 0.0 0.00 0.11 0.00 58 997.2
20260904173501 54 233 0.0 0.0 0.00 0.11 0.00 56 997.1
20260904173003 53 233 0.0 0.0 0.00 0.11 0.00 56 997.2
20260904172503 53 233 0.0 0.0 0.00 0.11 0.00 54 997.2
20260904171503 51 233 0.0 0.0 0.00 0.11 0.00 52 997.1
20260904170503 51 233 0.0 0.0 0.00 0.11 0.00 52 997.2
20260904170004 51 233 0.0 0.0 0.00 0.11 0.00 52 997.3
20260904165507 51 233 0.0 0.0 0.00 0.11 0.00 52 997.2
20260904165003 50 233 0.0 0.0 0.00 0.11 0.00 53 997.2
20260904164506 50 233 0.0 0.0 0.00 0.11 0.00 52 997.2
20260904164008 50 233 0.0 0.0 0.00 0.11 0.00 53 997.1
20260904163501 50 233 0.0 0.0 0.00 0.11 0.00 53 997.2
20260904162503 50 233 0.0 0.0 0.00 0.11 0.00 53 997.2
20260904162003 50 233 0.0 0.0 0.00 0.11 0.00 53 997.1
20260904161500 49 233 0.0 1.0 0.00 0.11 0.00 53 997.1
20260904161001 49 233 1.0 1.0 0.00 0.11 0.00 54 997.2
20260904160500 49 237 0.0 0.0 0.00 0.11 0.00 53 997.2
20260904160005 49 237 0.0 0.0 0.00 0.11 0.00 54 997.2
20260904155500 49 237 0.0 0.0 0.00 0.11 0.00 54 997.2
20260904154000 48 237 0.0 0.0 0.00 0.11 0.00 55 997.2
20260904153458 48 237 0.0 0.0 0.00 0.11 0.00 55 997.2
20260904153005 47 237 0.0 0.0 0.00 0.11 0.00 56 997.2
20260904152501 46 237 0.0 0.0 0.00 0.11 0.00 57 997.2
20260904152000 46 237 0.0 0.0 0.00 0.11 0.00 57 997.2
20260904151500 46 237 0.0 0.0 0.00 0.11 0.00 57 997.1
20260904150959 46 237 0.0 0.0 0.00 0.11 0.00 58 997.0
20260904150501 46 237 0.0 0.0 0.00 0.11 0.00 58 997.0
20260904145001 46 236 0.0 0.0 0.00 0.12 0.00 58 997.1
20260904144501 46 236 0.0 0.0 0.00 0.12 0.00 58 997.0
20260904144002 46 236 0.0 0.0 0.00 0.12 0.00 58 997.0
20260904143506 46 236 0.0 0.0 0.00 0.12 0.00 58 996.9
20260904143001 46 236 0.0 0.0 0.00 0.12 0.00 58 996.8
20260904142501 46 236 0.0 0.0 0.00 0.12 0.00 58 996.8
20260904142003 46 236 0.0 0.0 0.00 0.12 0.00 59 996.6
20260904141501 46 236 0.0 0.0 0.00 0.12 0.00 59 996.6
20260904141002 46 236 0.0 0.0 0.00 0.12 0.00 59 996.5
20260904140003 46 236 0.0 0.0 0.00 0.12 0.00 59 996.3
20260904135002 46 236 0.0 0.0 0.00 0.12 0.00 59 996.4
20260904134502 46 236 0.0 0.0 0.00 0.12 0.00 59 996.3
20260904134002 46 236 0.0 0.0 0.00 0.12 0.00 59 996.2
20260904133501 46 236 0.0 0.0 0.00 0.12 0.00 60 996.2
20260904133003 46 236 0.0 0.0 0.00 0.12 0.00 60 996.2
20260904132501 46 236 0.0 0.0 0.00 0.12 0.00 60 996.2
20260904132002 46 236 0.0 0.0 0.00 0.12 0.00 60 996.1
20260904130500 46 236 0.0 0.0 0.00 0.12 0.00 60 996.0
20260904130004 46 236 0.0 0.0 0.00 0.12 0.00 60 996.0
20260904125000 46 236 0.0 0.0 0.00 0.12 0.00 60 995.9
20260904124500 46 236 0.0 0.0 0.00 0.12 0.00 60 995.8
20260904124001 46 236 0.0 0.0 0.00 0.12 0.00 60 995.8
20260904123500 46 236 0.0 0.0 0.00 0.12 0.00 60 995.8
20260904123000 46 236 0.0 0.0 0.00 0.12 0.00 60 995.7
20260904122502 46 236 0.0 0.0 0.00 0.12 0.00 60 995.7
20260904122000 46 236 0.0 0.0 0.00 0.12 0.00 60 995.7
20260904121000 46 236 0.0 0.0 0.00 0.12 0.00 61 995.7
20260904114959 46 236 0.0 0.0 0.00 0.13 0.00 61 995.7
20260904114523 46 236 0.0 0.0 0.00 0.13 0.00 61 995.7
20260904113000 46 236 0.0 0.0 0.00 0.13 0.00 62 995.7
20260904111001 46 236 0.0 0.0 0.00 0.13 0.00 62 995.7
20260904110501 46 236 0.0 0.0 0.00 0.13 0.00 62 995.6
20260904105500 46 236 0.0 0.0 0.00 0.13 0.00 62 995.6
20260904105002 46 236 0.0 0.0 0.00 0.13 0.00 62 995.6
20260904104001 46 236 0.0 0.0 0.00 0.13 0.00 62 995.5
20260904103500 46 236 0.0 0.0 0.00 0.13 0.00 62 995.4
20260904103005 46 236 0.0 0.0 0.00 0.13 0.00 63 995.3
20260904102502 46 236 0.0 0.0 0.00 0.13 0.00 63 995.3
20260904102000 46 236 0.0 0.0 0.00 0.13 0.00 63 995.3
20260904101500 46 236 0.0 0.0 0.00 0.13 0.00 63 995.3
20260904095501 47 236 0.0 0.0 0.00 0.14 0.00 63 995.2
20260904094504 47 236 0.0 0.0 0.00 0.14 0.00 63 995.2
20260904093501 47 236 0.0 0.0 0.00 0.14 0.00 64 995.1
20260904092505 47 236 0.0 0.0 0.00 0.14 0.00 64 995.0
20260904091505 47 236 0.0 0.0 0.00 0.14 0.00 64 995.0
20260904091004 47 236 0.0 0.0 0.00 0.14 0.00 65 994.9
20260904085459 47 236 0.0 0.0 0.00 0.15 0.00 65 995.0
20260904085000 47 236 0.0 0.0 0.00 0.15 0.00 65 995.0
20260904084459 47 236 0.0 0.0 0.00 0.15 0.00 65 995.0
20260904084001 48 236 0.0 0.0 0.00 0.15 0.00 65 994.9
20260904083501 48 236 0.0 0.0 0.00 0.15 0.00 66 994.9
20260904082503 48 236 0.0 0.0 0.00 0.15 0.00 66 995.0
20260904082000 48 236 0.0 0.0 0.00 0.15 0.00 65 994.9
20260904081305 48 236 0.0 0.0 0.00 0.15 0.00 65 995.0
20260904080506 48 236 0.0 0.0 0.00 0.15 0.00 65 995.0
20260904075505 49 236 0.0 0.0 0.00 0.16 0.00 65 994.9
20260904074459 49 236 0.0 0.0 0.00 0.16 0.00 64 995.0
20260904073005 49 236 0.0 0.0 0.00 0.16 0.00 64 994.9
20260904072000 49 236 0.0 0.0 0.00 0.16 0.00 64 994.9
20260904071000 49 236 0.0 0.0 0.00 0.16 0.00 64 995.0
20260904070504 49 236 0.0 0.0 0.00 0.16 0.00 64 995.0
20260904070003 50 236 0.0 0.0 0.00 0.18 0.16 64 994.9
20260904065502 50 236 0.0 0.0 0.01 0.18 0.16 64 995.0
20260904064509 50 236 0.0 0.0 0.01 0.18 0.16 64 995.0
20260904064006 50 236 0.0 0.0 0.01 0.18 0.16 64 994.9
20260904063502 50 236 0.0 0.0 0.01 0.18 0.16 64 994.9
20260904063002 50 236 0.0 0.0 0.01 0.18 0.16 64 995.0
20260904062501 50 236 0.0 0.0 0.01 0.18 0.16 64 995.0
20260904061502 50 236 0.0 0.0 0.01 0.18 0.16 65 995.0
20260904061005 50 236 0.0 0.0 0.01 0.18 0.16 65 994.9
20260904060502 50 236 0.0 0.0 0.01 0.18 0.16 65 994.9
20260904060001 50 236 0.0 0.0 0.01 0.20 0.16 65 994.9
20260904055506 50 236 0.0 0.0 0.00 0.19 0.15 65 994.9
20260904055006 50 236 0.0 0.0 0.00 0.19 0.15 66 994.9
20260904054503 50 236 0.0 0.0 0.00 0.19 0.15 66 994.9
20260904054002 50 236 0.0 0.0 0.00 0.19 0.15 66 994.8
20260904053505 51 236 0.0 0.0 0.00 0.19 0.15 66 994.8
20260904052508 51 236 0.0 0.0 0.00 0.19 0.15 66 994.8
20260904052002 51 236 0.0 0.0 0.00 0.19 0.15 66 994.8
20260904051004 51 236 0.0 0.0 0.00 0.19 0.15 66 994.9
20260904050500 51 236 0.0 0.0 0.00 0.19 0.15 67 994.9
20260904050002 51 236 0.0 0.0 0.00 0.19 0.15 67 994.9
20260904045000 51 236 0.0 0.0 0.00 0.22 0.15 67 994.8
20260904044500 51 236 0.0 0.0 0.00 0.22 0.15 67 994.7
20260904044000 51 236 0.0 0.0 0.00 0.22 0.15 67 994.7
20260904043501 51 236 0.0 0.0 0.00 0.22 0.15 68 994.8
20260904043001 51 236 0.0 0.0 0.00 0.22 0.15 68 994.8
20260904042505 52 236 0.0 0.0 0.00 0.22 0.15 68 994.8
20260904041459 52 236 0.0 0.0 0.00 0.22 0.15 69 994.8
20260904040959 52 236 0.0 0.0 0.00 0.22 0.15 69 994.8
20260904040459 52 236 0.0 0.0 0.00 0.22 0.15 69 994.8
20260904040000 52 236 0.0 0.0 0.00 0.26 0.15 69 994.9
20260904035459 52 236 0.0 0.0 0.00 0.26 0.15 69 994.8
20260904034500 52 236 0.0 0.0 0.00 0.26 0.15 70 994.8
20260904034002 52 236 0.0 0.0 0.00 0.26 0.15 70 994.7
20260904033500 52 236 0.0 0.0 0.00 0.26 0.15 70 994.6
20260904033001 53 236 0.0 0.0 0.00 0.26 0.15 70 994.5
20260904032501 53 236 0.0 0.0 0.00 0.26 0.15 70 994.4
20260904032000 53 236 0.0 0.0 0.00 0.26 0.15 70 994.3
20260904031500 53 236 0.0 0.0 0.00 0.26 0.15 70 994.3
20260904030959 53 236 0.0 0.0 0.00 0.26 0.15 70 994.3
20260904030501 53 236 0.0 0.0 0.00 0.26 0.15 70 994.3
20260904030002 53 236 0.0 0.0 0.00 0.31 0.15 70 994.3
20260904024502 54 236 0.0 0.0 0.00 0.31 0.15 70 994.3
20260904024000 54 236 0.0 0.0 0.00 0.31 0.15 70 994.2
20260904023502 54 236 0.0 0.0 0.00 0.31 0.15 70 994.2
20260904023001 54 236 0.0 0.0 0.00 0.31 0.15 70 994.2
20260904022003 54 236 0.0 0.0 0.00 0.31 0.15 70 994.2
20260904021504 54 236 0.0 0.0 0.00 0.31 0.15 71 994.2
20260904021000 54 236 0.0 0.0 0.00 0.31 0.15 71 994.2
20260904020502 54 236 0.0 0.0 0.00 0.31 0.15 71 994.3
20260904015958 54 236 0.0 0.0 0.00 0.38 0.15 72 994.3
20260904015500 54 236 0.0 0.0 0.00 0.38 0.15 72 994.3
20260904015005 54 236 0.0 0.0 0.00 0.38 0.15 72 994.3
20260904014459 54 236 0.0 0.0 0.00 0.38 0.15 72 994.2
20260904013500 55 236 0.0 0.0 0.00 0.38 0.15 73 994.3
20260904013000 55 236 0.0 1.0 0.00 0.38 0.15 73 994.3
20260904012500 55 236 0.0 2.0 0.00 0.38 0.15 73 994.2
20260904011505 55 236 0.0 2.0 0.00 0.38 0.15 74 994.2
20260904011001 55 236 0.0 4.0 0.00 0.38 0.15 74 994.2
20260904010500 55 236 0.0 4.0 0.01 0.38 0.15 75 994.1
20260904010000 56 260 1.0 4.0 0.01 0.44 0.15 75 994.2
20260904005503 56 278 0.0 4.0 0.01 0.44 0.15 76 994.3
20260904004959 56 256 2.0 3.0 0.01 0.44 0.15 76 994.3
20260904004500 56 238 0.0 4.0 0.01 0.44 0.15 76 994.1
20260904004000 57 245 0.0 4.0 0.01 0.44 0.15 76 994.0
20260904003000 57 231 0.0 4.0 0.01 0.44 0.15 76 994.1
20260904001959 58 185 0.0 5.0 0.01 0.44 0.15 76 993.9
20260904001500 58 244 0.0 5.0 0.01 0.44 0.15 75 993.9
20260904001002 58 242 0.0 2.0 0.01 0.44 0.15 74 993.9
20260904000500 58 242 0.0 0.0 0.00 0.43 0.14 73 994.0